Time,TemperatureF,DewpointF,PressureIn,WindDirection,WindDirectionDegrees,WindSpeedMPH,WindSpeedGustMPH,Humidity,HourlyPrecipIn,Conditions,Clouds,dailyrainin,SoftwareType,DateUTC
2013-03-08 00:32:00,57.0,27.0,30.07,SSE,160,14.0,20.0,30,-99.99,,,-99.99,,2013-03-08 06:32:00,
2013-03-08 00:42:00,57.0,27.0,30.07,SSE,160,14.0,20.0,30,-99.99,,,-99.99,,2013-03-08 06:42:00,
2013-03-08 00:51:00,57.0,27.0,30.07,SSE,160,14.0,20.0,30,-99.99,,,-99.99,,2013-03-08 06:51:00,
2013-03-08 01:11:00,55.0,28.0,30.07,South,170,14.0,20.0,35,-99.99,,,-99.99,,2013-03-08 07:11:00,
2013-03-08 01:22:00,55.0,28.0,30.07,South,170,14.0,20.0,35,-99.99,,,-99.99,,2013-03-08 07:22:00,
2013-03-08 01:32:00,55.0,28.0,30.07,South,170,14.0,20.0,35,-99.99,,,-99.99,,2013-03-08 07:32:00,
2013-03-08 01:42:00,55.0,28.0,30.07,South,170,14.0,20.0,35,-99.99,,,-99.99,,2013-03-08 07:42:00,
2013-03-08 01:51:00,55.0,28.0,30.07,South,170,14.0,20.0,35,-99.99,,,-99.99,,2013-03-08 07:51:00,
2013-03-08 02:22:00,55.0,30.0,30.07,SSE,160,17.0,22.0,37,-99.99,,,-99.99,,2013-03-08 08:22:00,
2013-03-08 02:32:00,55.0,30.0,30.07,SSE,160,17.0,22.0,37,-99.99,,,-99.99,,2013-03-08 08:32:00,
2013-03-08 02:42:00,55.0,30.0,30.07,SSE,160,17.0,22.0,37,-99.99,,,-99.99,,2013-03-08 08:42:00,
2013-03-08 02:52:00,55.0,30.0,30.07,SSE,160,17.0,22.0,37,-99.99,,,-99.99,,2013-03-08 08:52:00,
2013-03-08 03:21:00,55.0,30.0,30.06,South,170,13.0,28.0,37,-99.99,,,-99.99,,2013-03-08 09:21:00,
2013-03-08 03:32:00,55.0,30.0,30.06,South,170,13.0,28.0,37,-99.99,,,-99.99,,2013-03-08 09:32:00,
2013-03-08 03:42:00,55.0,30.0,30.06,South,170,13.0,28.0,37,-99.99,,,-99.99,,2013-03-08 09:42:00,
2013-03-08 03:52:00,55.0,30.0,30.06,South,170,13.0,28.0,37,-99.99,,,-99.99,,2013-03-08 09:52:00,
2013-03-08 04:21:00,55.0,34.0,30.05,SSE,160,14.0,24.0,43,-99.99,,,-99.99,,2013-03-08 10:21:00,
2013-03-08 04:32:00,55.0,34.0,30.05,SSE,160,14.0,24.0,43,-99.99,,,-99.99,,2013-03-08 10:32:00,
2013-03-08 04:42:00,55.0,34.0,30.05,SSE,160,14.0,24.0,43,-99.99,,,-99.99,,2013-03-08 10:42:00,
2013-03-08 04:51:00,55.0,34.0,30.05,SSE,160,14.0,24.0,43,-99.99,,,-99.99,,2013-03-08 10:51:00,
2013-03-08 05:11:00,54.0,36.0,30.05,SSE,160,15.0,20.0,50,-99.99,,,-99.99,,2013-03-08 11:11:00,
2013-03-08 05:21:00,54.0,36.0,30.05,SSE,160,15.0,20.0,50,-99.99,,,-99.99,,2013-03-08 11:21:00,
2013-03-08 05:32:00,54.0,36.0,30.05,SSE,160,15.0,20.0,50,-99.99,,,-99.99,,2013-03-08 11:32:00,
2013-03-08 05:42:00,54.0,36.0,30.05,SSE,160,15.0,20.0,50,-99.99,,,-99.99,,2013-03-08 11:42:00,
2013-03-08 05:52:00,54.0,36.0,30.05,SSE,160,15.0,20.0,50,-99.99,,,-99.99,,2013-03-08 11:52:00,
2013-03-08 06:43:00,54.0,39.0,30.07,SSE,160,12.0,17.0,58,-99.99,,,-99.99,,2013-03-08 12:43:00,
2013-03-08 06:52:00,54.0,39.0,30.07,SSE,160,12.0,17.0,58,-99.99,,,-99.99,,2013-03-08 12:52:00,
2013-03-08 07:22:00,54.0,43.0,30.08,SSE,160,15.0,21.0,66,-99.99,,,-99.99,,2013-03-08 13:22:00,
2013-03-08 07:32:00,54.0,43.0,30.08,SSE,160,15.0,21.0,66,-99.99,,,-99.99,,2013-03-08 13:32:00,
2013-03-08 07:42:00,54.0,43.0,30.08,SSE,160,15.0,21.0,66,-99.99,,,-99.99,,2013-03-08 13:42:00,
2013-03-08 07:52:00,54.0,43.0,30.08,SSE,160,15.0,21.0,66,-99.99,,,-99.99,,2013-03-08 13:52:00,
2013-03-08 08:32:00,54.0,43.0,30.09,SSE,150,15.0,25.0,66,-99.99,,,-99.99,,2013-03-08 14:32:00,
2013-03-08 08:42:00,54.0,43.0,30.09,SSE,150,15.0,25.0,66,-99.99,,,-99.99,,2013-03-08 14:42:00,
2013-03-08 08:52:00,54.0,43.0,30.09,SSE,150,15.0,25.0,66,-99.99,,,-99.99,,2013-03-08 14:52:00,
2013-03-08 09:32:00,54.0,45.0,30.10,SSE,150,16.0,27.0,71,-99.99,,,-99.99,,2013-03-08 15:32:00,
2013-03-08 09:42:00,54.0,45.0,30.10,SSE,150,16.0,27.0,71,-99.99,,,-99.99,,2013-03-08 15:42:00,
2013-03-08 09:53:00,54.0,45.0,30.10,SSE,150,16.0,27.0,71,-99.99,,,-99.99,,2013-03-08 15:53:00,
2013-03-08 10:22:00,55.0,48.0,30.11,SSE,160,15.0,27.0,76,-99.99,,,-99.99,,2013-03-08 16:22:00,
2013-03-08 10:32:00,55.0,48.0,30.11,SSE,160,15.0,27.0,76,-99.99,,,-99.99,,2013-03-08 16:32:00,
2013-03-08 10:42:00,55.0,48.0,30.11,SSE,160,15.0,27.0,76,-99.99,,,-99.99,,2013-03-08 16:42:00,
2013-03-08 10:52:00,55.0,48.0,30.11,SSE,160,15.0,27.0,76,-99.99,,,-99.99,,2013-03-08 16:52:00,
2013-03-08 11:11:00,57.0,48.0,30.11,SSE,150,17.0,28.0,71,-99.99,,,-99.99,,2013-03-08 17:11:00,
2013-03-08 11:21:00,57.0,48.0,30.11,SSE,150,17.0,28.0,71,-99.99,,,-99.99,,2013-03-08 17:21:00,
2013-03-08 11:32:00,57.0,48.0,30.11,SSE,150,17.0,28.0,71,-99.99,,,-99.99,,2013-03-08 17:32:00,
2013-03-08 11:42:00,57.0,48.0,30.11,SSE,150,17.0,28.0,71,-99.99,,,-99.99,,2013-03-08 17:42:00,
2013-03-08 11:52:00,57.0,48.0,30.11,SSE,150,17.0,28.0,71,-99.99,,,-99.99,,2013-03-08 17:52:00,
2013-03-08 12:21:00,57.0,50.0,30.08,SSE,150,24.0,33.0,76,-99.99,,,-99.99,,2013-03-08 18:21:00,
2013-03-08 12:32:00,57.0,50.0,30.08,SSE,150,24.0,33.0,76,-99.99,,,-99.99,,2013-03-08 18:32:00,
2013-03-08 12:42:00,57.0,50.0,30.08,SSE,150,24.0,33.0,76,-99.99,,,-99.99,,2013-03-08 18:42:00,
2013-03-08 12:52:00,57.0,50.0,30.08,SSE,150,24.0,33.0,76,-99.99,,,-99.99,,2013-03-08 18:52:00,
2013-03-08 13:22:00,57.0,48.0,30.05,SSE,150,18.0,30.0,71,-99.99,,,-99.99,,2013-03-08 19:22:00,
2013-03-08 13:32:00,57.0,48.0,30.05,SSE,150,18.0,30.0,71,-99.99,,,-99.99,,2013-03-08 19:32:00,
2013-03-08 13:42:00,57.0,48.0,30.05,SSE,150,18.0,30.0,71,-99.99,,,-99.99,,2013-03-08 19:42:00,
2013-03-08 13:52:00,57.0,48.0,30.05,SSE,150,18.0,30.0,71,-99.99,,,-99.99,,2013-03-08 19:52:00,
2013-03-08 14:21:00,57.0,48.0,30.02,SSE,150,27.0,36.0,71,-99.99,,,-99.99,,2013-03-08 20:21:00,
2013-03-08 14:32:00,57.0,48.0,30.02,SSE,150,27.0,36.0,71,-99.99,,,-99.99,,2013-03-08 20:32:00,
2013-03-08 14:42:00,57.0,48.0,30.02,SSE,150,27.0,36.0,71,-99.99,,,-99.99,,2013-03-08 20:42:00,
2013-03-08 14:52:00,57.0,48.0,30.02,SSE,150,27.0,36.0,71,-99.99,,,-99.99,,2013-03-08 20:52:00,
2013-03-08 15:22:00,57.0,48.0,30.01,SSE,160,20.0,32.0,71,-99.99,,,-99.99,,2013-03-08 21:22:00,
2013-03-08 15:32:00,57.0,48.0,30.01,SSE,160,20.0,32.0,71,-99.99,,,-99.99,,2013-03-08 21:32:00,
2013-03-08 15:42:00,57.0,48.0,30.01,SSE,160,20.0,32.0,71,-99.99,,,-99.99,,2013-03-08 21:42:00,
2013-03-08 15:52:00,57.0,48.0,30.01,SSE,160,20.0,32.0,71,-99.99,,,-99.99,,2013-03-08 21:52:00,
2013-03-08 16:22:00,57.0,48.0,30.00,SSE,150,23.0,31.0,71,-99.99,,,-99.99,,2013-03-08 22:22:00,
2013-03-08 16:32:00,57.0,48.0,30.00,SSE,150,23.0,31.0,71,-99.99,,,-99.99,,2013-03-08 22:32:00,
2013-03-08 16:42:00,57.0,48.0,30.00,SSE,150,23.0,31.0,71,-99.99,,,-99.99,,2013-03-08 22:42:00,
2013-03-08 16:52:00,57.0,48.0,30.00,SSE,150,23.0,31.0,71,-99.99,,,-99.99,,2013-03-08 22:52:00,
2013-03-08 17:22:00,57.0,48.0,29.97,SSE,150,22.0,29.0,71,-99.99,,,-99.99,,2013-03-08 23:22:00,
2013-03-08 17:32:00,57.0,48.0,29.97,SSE,150,22.0,29.0,71,-99.99,,,-99.99,,2013-03-08 23:32:00,
2013-03-08 17:42:00,57.0,48.0,29.97,SSE,150,22.0,29.0,71,-99.99,,,-99.99,,2013-03-08 23:42:00,
2013-03-08 17:52:00,57.0,48.0,29.97,SSE,150,22.0,29.0,71,-99.99,,,-99.99,,2013-03-08 23:52:00,
2013-03-08 18:11:00,57.0,52.0,29.99,SSE,160,18.0,24.0,82,-99.99,,,-99.99,,2013-03-09 00:11:00,
2013-03-08 18:22:00,57.0,52.0,29.99,SSE,160,18.0,24.0,82,-99.99,,,-99.99,,2013-03-09 00:22:00,
2013-03-08 18:32:00,57.0,52.0,29.99,SSE,160,18.0,24.0,82,-99.99,,,-99.99,,2013-03-09 00:32:00,
2013-03-08 18:42:00,57.0,52.0,29.99,SSE,160,18.0,24.0,82,-99.99,,,-99.99,,2013-03-09 00:42:00,
2013-03-08 18:52:00,57.0,52.0,29.99,SSE,160,18.0,24.0,82,-99.99,,,-99.99,,2013-03-09 00:52:00,
2013-03-08 19:22:00,57.0,54.0,29.99,SSE,160,18.0,29.0,87,-99.99,,,-99.99,,2013-03-09 01:22:00,
2013-03-08 19:32:00,57.0,54.0,29.99,SSE,160,18.0,29.0,87,-99.99,,,-99.99,,2013-03-09 01:32:00,
2013-03-08 19:42:00,57.0,54.0,29.99,SSE,160,18.0,29.0,87,-99.99,,,-99.99,,2013-03-09 01:42:00,
2013-03-08 19:51:00,57.0,54.0,29.99,SSE,160,18.0,29.0,87,-99.99,,,-99.99,,2013-03-09 01:51:00,
2013-03-08 20:21:00,57.0,50.0,30.00,SSE,150,16.0,25.0,76,-99.99,,,-99.99,,2013-03-09 02:21:00,
2013-03-08 20:31:00,57.0,50.0,30.00,SSE,150,16.0,25.0,76,-99.99,,,-99.99,,2013-03-09 02:31:00,
2013-03-08 20:41:00,57.0,50.0,30.00,SSE,150,16.0,25.0,76,-99.99,,,-99.99,,2013-03-09 02:41:00,
2013-03-08 20:51:00,57.0,50.0,30.00,SSE,150,16.0,25.0,76,-99.99,,,-99.99,,2013-03-09 02:51:00,
2013-03-08 21:21:00,55.0,52.0,29.99,SE,140,20.0,29.0,87,-99.99,,,-99.99,,2013-03-09 03:21:00,
2013-03-08 21:31:00,55.0,52.0,29.99,SE,140,20.0,29.0,87,-99.99,,,-99.99,,2013-03-09 03:31:00,
2013-03-08 21:41:00,55.0,52.0,29.99,SE,140,20.0,29.0,87,-99.99,,,-99.99,,2013-03-09 03:41:00,
2013-03-08 21:52:00,55.0,52.0,29.99,SE,140,20.0,29.0,87,-99.99,,,-99.99,,2013-03-09 03:52:00,
2013-03-08 22:11:00,57.0,54.0,29.97,SE,140,23.0,29.0,87,-99.99,,,-99.99,,2013-03-09 04:11:00,
2013-03-08 22:22:00,57.0,54.0,29.97,SE,140,23.0,29.0,87,-99.99,,,-99.99,,2013-03-09 04:22:00,
2013-03-08 22:32:00,57.0,54.0,29.97,SE,140,23.0,29.0,87,-99.99,,,-99.99,,2013-03-09 04:32:00,
2013-03-08 22:41:00,57.0,54.0,29.97,SE,140,23.0,29.0,87,-99.99,,,-99.99,,2013-03-09 04:41:00,
2013-03-08 22:51:00,57.0,54.0,29.97,SE,140,23.0,29.0,87,-99.99,,,-99.99,,2013-03-09 04:51:00,
2013-03-08 23:22:00,59.0,52.0,29.93,SE,140,27.0,36.0,76,-99.99,,,-99.99,,2013-03-09 05:22:00,
2013-03-08 23:32:00,59.0,52.0,29.93,SE,140,27.0,36.0,76,-99.99,,,-99.99,,2013-03-09 05:32:00,
2013-03-08 23:42:00,59.0,52.0,29.93,SE,140,27.0,36.0,76,-99.99,,,-99.99,,2013-03-09 05:42:00,
2013-03-08 23:52:00,59.0,52.0,29.93,SE,140,27.0,36.0,76,-99.99,,,-99.99,,2013-03-09 05:52:00,